sat.trackr.live / text

‹ back to catalog

WORLDVIEW-1 (WV-1)

NORAD 32060 · 2007-041A

PAYLOAD ACTIVE UNKNOWN

§ Identity

Operator
Country
US
Launch date
2007-09-18
Launch site
AFWTR
Launch vehicle
Mass (kg)
RCS (m²)
5.48

Purposes: earth_obs

External: N2YO · Heavens-Above · Gunter

§ Orbital elements

Epoch: 2026-05-25T04:23:47.649696Z

Period
94.45 min
Inclination
97.3923°
Eccentricity
0.0003957
Mean motion
15.24627006 rev/d
Perigee alt
489.2 km
Apogee alt
494.6 km
Semi-major
6,870.0 km
B*
2.3714e-4
RAAN
265.2614°
Arg perigee
121.4685°
Mean anomaly
238.6940°
Rev number
3,937

§ Raw data

WORLDVIEW-1 (WV-1)1 32060U 07041A   26145.18319039  .00005782  00000+0  23714-3 0  99962 32060  97.3923 265.2614 0003957 121.4685 238.6940 15.24627006 39370

JSON: /api/v1/satellites/32060 · /tle

For live sub-satellite position, see the globe view (requires WebGL).

§ Visibility from observer

Set your observer location to see the next 7 days of passes ≥ 10°. The values pass through the URL so the page stays shareable.

No JS? Fill the form by hand. The geolocation button needs JavaScript.